TAP70 LGAV-LPPT

Flight info

Callsign TAP70
Flight time 4h 2m
Altitude 34000
Route KOR UN604 ARA DCT DINOB DCT CRN DCT LODPA DCT DIRED DCT EPIKU DCT GINOX DCT KIFMI DCT ELVOP DCT MUREN DCT CHELY DCT VERSO DCT SULID DCT SADEM DCT BCN/N0453F350 DCT ANTON DCT XIKEN DCT OSLAP DCT SALAS DCT RAMON DCT NEXAS DCT DISVU DCT ADUXO DCT CJN DCT PALIO DCT AKOKI DCT GOTOR DCT TLD DCT NATPA DCT MELON DCT CCS DCT ELVAR DCT UPULO
Aircraft A321/M-SDE3FGHIRWY/LB1

Departure

Time 2026-05-06 16:17
Airport Athens Eleftherios Venizelos International Airport (LGAV)

Arrival

Time 2026-05-06 20:20
Airport Lisbon Humberto Delgado Airport (LPPT)
Time Latitude Longitude Altitude Speed Heading
2026-05-06 16:00 37.94353 23.95341 281 ft 0 kts 33°
2026-05-06 16:12 37.94354 23.95342 281 ft 2 kts 34°
2026-05-06 16:12 37.94369 23.95381 280 ft 9 kts 79°
2026-05-06 16:12 37.94343 23.95480 282 ft 16 kts 126°
2026-05-06 16:13 37.94266 23.95610 277 ft 17 kts 128°
2026-05-06 16:13 37.94250 23.95695 276 ft 9 kts 58°
2026-05-06 16:13 37.94293 23.95749 275 ft 8 kts 39°
2026-05-06 16:13 37.94336 23.95789 278 ft 7 kts 39°
2026-05-06 16:14 37.94359 23.95859 274 ft 12 kts 93°
2026-05-06 16:14 37.94392 23.95986 274 ft 20 kts 38°
2026-05-06 16:14 37.94527 23.96109 274 ft 28 kts 37°
2026-05-06 16:14 37.94706 23.96284 270 ft 37 kts 36°
2026-05-06 16:15 37.94931 23.96497 267 ft 44 kts 37°
2026-05-06 16:15 37.95163 23.96717 265 ft 40 kts 37°
2026-05-06 16:15 37.95298 23.96878 263 ft 21 kts 82°
2026-05-06 16:15 37.95232 23.96993 264 ft 15 kts 144°
2026-05-06 16:16 37.95158 23.96988 265 ft 0 kts 211°
2026-05-06 16:16 37.95098 23.96935 266 ft 37 kts 216°
2026-05-06 16:16 37.94712 23.96565 270 ft 99 kts 217°
2026-05-06 16:17 37.94026 23.95913 281 ft 145 kts 217°
2026-05-06 16:17 37.93115 23.95049 352 ft 177 kts 217°
2026-05-06 16:17 37.92097 23.94121 789 ft 183 kts 213°
2026-05-06 16:17 37.90975 23.93300 1329 ft 186 kts 207°
2026-05-06 16:18 37.89818 23.92573 1847 ft 185 kts 205°
2026-05-06 16:18 37.88635 23.91842 2151 ft 197 kts 206°
2026-05-06 16:18 37.87373 23.90975 2283 ft 216 kts 218°
2026-05-06 16:18 37.86448 23.89380 2411 ft 242 kts 253°
2026-05-06 16:19 37.86360 23.87222 2756 ft 257 kts 275°
2026-05-06 16:19 37.86534 23.84945 3385 ft 262 kts 275°
2026-05-06 16:19 37.86718 23.82644 4070 ft 264 kts 275°
2026-05-06 16:19 37.86904 23.80330 4797 ft 265 kts 276°
2026-05-06 16:20 37.87085 23.78009 5449 ft 266 kts 276°
2026-05-06 16:20 37.87263 23.75664 6107 ft 269 kts 276°
2026-05-06 16:20 37.87437 23.73310 6780 ft 269 kts 276°
2026-05-06 16:20 37.87610 23.70937 7401 ft 272 kts 276°
2026-05-06 16:21 37.87785 23.68541 7992 ft 275 kts 276°
2026-05-06 16:21 37.87965 23.66118 8582 ft 278 kts 276°
2026-05-06 16:21 37.88144 23.63669 9199 ft 281 kts 276°
2026-05-06 16:21 37.88324 23.61195 9769 ft 284 kts 276°
2026-05-06 16:22 37.88507 23.58688 10312 ft 288 kts 276°
2026-05-06 16:22 37.88693 23.56108 10445 ft 307 kts 276°
2026-05-06 16:22 37.88891 23.53342 10564 ft 325 kts 276°
2026-05-06 16:22 37.89102 23.50412 10692 ft 343 kts 276°
2026-05-06 16:23 37.89322 23.47333 10807 ft 359 kts 276°
2026-05-06 16:23 37.89555 23.44115 10933 ft 375 kts 276°
2026-05-06 16:23 37.89796 23.40759 11081 ft 389 kts 276°
2026-05-06 16:23 37.90042 23.37322 11445 ft 394 kts 276°
2026-05-06 16:24 37.90286 23.33856 11887 ft 397 kts 276°
2026-05-06 16:24 37.90530 23.30360 12340 ft 400 kts 276°
2026-05-06 16:24 37.90772 23.26884 12783 ft 403 kts 276°
2026-05-06 16:24 37.91017 23.23345 13229 ft 405 kts 276°
2026-05-06 16:25 37.91266 23.19793 13673 ft 408 kts 276°
2026-05-06 16:25 37.91516 23.16197 14086 ft 410 kts 276°
2026-05-06 16:25 37.91764 23.12590 14488 ft 412 kts 276°
2026-05-06 16:25 37.92012 23.08967 14901 ft 414 kts 276°
2026-05-06 16:26 37.92256 23.05332 15315 ft 415 kts 276°
2026-05-06 16:26 37.92498 23.01683 15717 ft 416 kts 276°
2026-05-06 16:26 37.92740 22.98027 16116 ft 418 kts 276°
2026-05-06 16:26 37.92988 22.94352 16514 ft 420 kts 277°
2026-05-06 16:27 37.93301 22.90715 16902 ft 421 kts 279°
2026-05-06 16:27 37.93729 22.87049 17301 ft 423 kts 281°
2026-05-06 16:27 37.94231 22.83371 17696 ft 424 kts 282°
2026-05-06 16:27 37.94763 22.79682 18095 ft 426 kts 282°
2026-05-06 16:28 37.95291 22.75976 18425 ft 429 kts 282°
2026-05-06 16:28 37.95802 22.72245 18718 ft 432 kts 281°
2026-05-06 16:28 37.96296 22.68477 19042 ft 434 kts 281°
2026-05-06 16:28 37.96788 22.64705 19348 ft 436 kts 282°
2026-05-06 16:29 37.97337 22.60976 19685 ft 436 kts 283°
2026-05-06 16:29 37.97944 22.57203 19997 ft 438 kts 283°
2026-05-06 16:29 37.98582 22.53406 20322 ft 440 kts 283°
2026-05-06 16:29 37.99229 22.49609 20643 ft 442 kts 283°
2026-05-06 16:30 37.99869 22.45801 20934 ft 443 kts 283°
2026-05-06 16:30 38.00290 22.43260 21133 ft 444 kts 283°
2026-05-06 16:30 38.01125 22.38106 21506 ft 447 kts 282°
2026-05-06 16:30 38.01743 22.34234 21790 ft 449 kts 282°
2026-05-06 16:31 38.02362 22.30337 22062 ft 451 kts 282°
2026-05-06 16:31 38.02976 22.26436 22338 ft 452 kts 282°
2026-05-06 16:31 38.03591 22.22521 22626 ft 454 kts 282°
2026-05-06 16:31 38.04210 22.18582 22901 ft 456 kts 282°
2026-05-06 16:32 38.04834 22.14626 23196 ft 457 kts 282°
2026-05-06 16:32 38.05459 22.10671 23550 ft 457 kts 282°
2026-05-06 16:32 38.06075 22.06769 23917 ft 455 kts 282°
2026-05-06 16:32 38.06699 22.02794 24278 ft 454 kts 282°
2026-05-06 16:33 38.07314 21.98872 24647 ft 453 kts 282°
2026-05-06 16:33 38.07918 21.95008 25013 ft 451 kts 282°
2026-05-06 16:33 38.08525 21.91106 25373 ft 450 kts 282°
2026-05-06 16:34 38.09724 21.83330 26095 ft 448 kts 282°
2026-05-06 16:34 38.10319 21.79457 26458 ft 446 kts 281°
2026-05-06 16:34 38.10913 21.75598 26855 ft 444 kts 281°
2026-05-06 16:34 38.11506 21.71752 27237 ft 443 kts 281°
2026-05-06 16:35 38.12097 21.67918 27598 ft 441 kts 281°
2026-05-06 16:35 38.12685 21.64099 27949 ft 440 kts 281°
2026-05-06 16:35 38.13268 21.60293 28279 ft 439 kts 281°
2026-05-06 16:35 38.13850 21.56488 28630 ft 438 kts 281°
2026-05-06 16:36 38.14429 21.52696 28953 ft 437 kts 281°
2026-05-06 16:36 38.15003 21.48907 29286 ft 436 kts 281°
2026-05-06 16:36 38.15572 21.45131 29624 ft 435 kts 281°
2026-05-06 16:36 38.16269 21.41404 29929 ft 433 kts 287°
2026-05-06 16:37 38.17162 21.37749 30219 ft 433 kts 287°
2026-05-06 16:37 38.18059 21.34096 30494 ft 431 kts 287°
2026-05-06 16:37 38.18949 21.30466 30764 ft 430 kts 287°
2026-05-06 16:37 38.19837 21.26834 31039 ft 429 kts 287°
2026-05-06 16:38 38.20708 21.23262 31324 ft 428 kts 287°
2026-05-06 16:38 38.21587 21.19650 31599 ft 427 kts 287°
2026-05-06 16:38 38.22460 21.16050 31876 ft 426 kts 287°
2026-05-06 16:38 38.23329 21.12445 32142 ft 425 kts 287°
2026-05-06 16:39 38.24193 21.08850 32385 ft 425 kts 287°
2026-05-06 16:39 38.25054 21.05256 32651 ft 424 kts 287°
2026-05-06 16:39 38.25914 21.01679 32919 ft 423 kts 287°
2026-05-06 16:39 38.26777 20.98097 33072 ft 424 kts 287°
2026-05-06 16:40 38.27646 20.94489 33095 ft 428 kts 287°
2026-05-06 16:40 38.29393 20.87222 33093 ft 429 kts 286°
2026-05-06 16:41 38.31131 20.79947 33106 ft 430 kts 287°
2026-05-06 16:41 38.32858 20.72696 33101 ft 430 kts 287°
2026-05-06 16:42 38.34591 20.65413 33098 ft 430 kts 286°
2026-05-06 16:42 38.36315 20.58118 33104 ft 430 kts 286°
2026-05-06 16:43 38.38035 20.50809 33103 ft 430 kts 286°
2026-05-06 16:43 38.39740 20.43540 33097 ft 430 kts 286°
2026-05-06 16:44 38.41455 20.36227 33097 ft 430 kts 286°
2026-05-06 16:44 38.43171 20.28900 33098 ft 431 kts 286°
2026-05-06 16:45 38.44880 20.21573 33098 ft 431 kts 286°
2026-05-06 16:45 38.46579 20.14248 33098 ft 430 kts 286°
2026-05-06 16:46 38.48271 20.06921 33097 ft 430 kts 286°
2026-05-06 16:46 38.49962 19.99593 33096 ft 430 kts 286°
2026-05-06 16:47 38.51643 19.92306 33110 ft 430 kts 286°
2026-05-06 16:47 38.53322 19.84962 33118 ft 431 kts 285°
2026-05-06 16:48 38.54999 19.77624 33118 ft 430 kts 285°
2026-05-06 16:48 38.56676 19.70282 33107 ft 430 kts 285°
2026-05-06 16:49 38.58346 19.62940 33104 ft 430 kts 285°
2026-05-06 16:49 38.59996 19.55647 33104 ft 429 kts 285°
2026-05-06 16:50 38.61651 19.48304 33099 ft 429 kts 285°
2026-05-06 16:50 38.63298 19.40958 33099 ft 429 kts 285°
2026-05-06 16:51 38.64942 19.33612 33093 ft 429 kts 285°
2026-05-06 16:51 38.66568 19.26322 33093 ft 429 kts 285°
2026-05-06 16:52 38.68209 19.18981 33092 ft 429 kts 285°
2026-05-06 16:52 38.69849 19.11650 33092 ft 429 kts 285°
2026-05-06 16:53 38.71477 19.04310 33105 ft 428 kts 285°
2026-05-06 16:53 38.73000 18.96939 33084 ft 428 kts 282°
2026-05-06 16:54 38.74142 18.89454 33088 ft 428 kts 279°
2026-05-06 16:54 38.75154 18.81928 33089 ft 428 kts 280°
2026-05-06 16:55 38.76220 18.74411 33075 ft 428 kts 281°
2026-05-06 16:55 38.77332 18.66911 33071 ft 429 kts 281°
2026-05-06 16:56 38.78451 18.59444 33071 ft 429 kts 281°
2026-05-06 16:56 38.79566 18.51925 33074 ft 429 kts 281°
2026-05-06 16:57 38.80661 18.44392 33070 ft 429 kts 280°
2026-05-06 16:57 38.81744 18.36869 33087 ft 428 kts 282°
2026-05-06 16:58 38.82821 18.29381 33089 ft 426 kts 282°
2026-05-06 16:58 38.83896 18.21909 33087 ft 425 kts 282°
2026-05-06 16:59 38.84965 18.14488 33092 ft 425 kts 282°
2026-05-06 16:59 38.86027 18.07046 33069 ft 424 kts 281°
2026-05-06 17:00 38.87077 17.99588 33067 ft 424 kts 281°
2026-05-06 17:00 38.88134 17.92126 33079 ft 424 kts 282°
2026-05-06 17:01 38.89185 17.84662 33078 ft 424 kts 281°
2026-05-06 17:01 38.90221 17.77242 33075 ft 424 kts 281°
2026-05-06 17:02 38.91260 17.69782 33073 ft 424 kts 281°
2026-05-06 17:02 38.92121 17.63573 33076 ft 423 kts 281°
2026-05-06 17:03 38.93146 17.56134 33054 ft 423 kts 281°
2026-05-06 17:03 38.94163 17.48691 33054 ft 423 kts 281°
2026-05-06 17:04 38.95178 17.41234 33058 ft 423 kts 281°
2026-05-06 17:04 38.96192 17.33791 33054 ft 423 kts 280°
2026-05-06 17:05 38.97194 17.26387 33056 ft 423 kts 280°
2026-05-06 17:05 38.98199 17.18933 33057 ft 423 kts 280°
2026-05-06 17:06 38.99193 17.11482 33052 ft 423 kts 279°
2026-05-06 17:06 39.00540 17.04121 33061 ft 423 kts 285°
2026-05-06 17:07 39.02164 16.96849 33066 ft 423 kts 285°
2026-05-06 17:07 39.03779 16.89589 33064 ft 422 kts 285°
2026-05-06 17:08 39.05390 16.82317 33051 ft 422 kts 285°
2026-05-06 17:08 39.06985 16.75039 33049 ft 422 kts 285°
2026-05-06 17:09 39.08580 16.67761 33060 ft 422 kts 284°
2026-05-06 17:09 39.10162 16.60538 33050 ft 422 kts 284°
2026-05-06 17:10 39.11749 16.53261 33040 ft 422 kts 284°
2026-05-06 17:10 39.13332 16.45978 33029 ft 422 kts 284°
2026-05-06 17:11 39.14908 16.38686 33029 ft 422 kts 284°
2026-05-06 17:11 39.16469 16.31449 33016 ft 422 kts 284°
2026-05-06 17:12 39.18120 16.24175 33013 ft 423 kts 285°
2026-05-06 17:12 39.19826 16.16909 32998 ft 423 kts 285°
2026-05-06 17:13 39.21520 16.09627 33010 ft 424 kts 284°
2026-05-06 17:13 39.23187 16.02327 33006 ft 424 kts 284°
2026-05-06 17:14 39.24845 15.95017 33010 ft 424 kts 284°
2026-05-06 17:14 39.26484 15.87745 32997 ft 425 kts 284°
2026-05-06 17:15 39.28145 15.80422 33000 ft 425 kts 284°
2026-05-06 17:15 39.29799 15.73084 32997 ft 426 kts 284°
2026-05-06 17:16 39.31450 15.65739 32999 ft 426 kts 284°
2026-05-06 17:16 39.33099 15.58398 33011 ft 425 kts 284°
2026-05-06 17:17 39.34741 15.51068 33018 ft 424 kts 284°
2026-05-06 17:17 39.36377 15.43739 33009 ft 424 kts 284°
2026-05-06 17:18 39.37991 15.36460 33010 ft 423 kts 284°
2026-05-06 17:18 39.39613 15.29122 33002 ft 423 kts 284°
2026-05-06 17:19 39.41223 15.21801 33021 ft 422 kts 283°
2026-05-06 17:19 39.42825 15.14512 33009 ft 421 kts 283°
2026-05-06 17:20 39.44413 15.07270 33003 ft 421 kts 283°
2026-05-06 17:20 39.46002 14.99971 32999 ft 420 kts 283°
2026-05-06 17:21 39.47580 14.92695 33006 ft 420 kts 283°
2026-05-06 17:21 39.49160 14.85405 33010 ft 420 kts 282°
2026-05-06 17:22 39.50729 14.78133 33003 ft 419 kts 282°
2026-05-06 17:22 39.52301 14.70851 32998 ft 419 kts 282°
2026-05-06 17:23 39.53860 14.63575 32995 ft 419 kts 282°
2026-05-06 17:23 39.55417 14.56287 33003 ft 419 kts 282°
2026-05-06 17:24 39.56972 14.49056 32998 ft 419 kts 283°
2026-05-06 17:24 39.58648 14.41800 32993 ft 420 kts 283°
2026-05-06 17:25 39.60369 14.34567 32987 ft 420 kts 283°
2026-05-06 17:25 39.62071 14.27321 32985 ft 420 kts 283°
2026-05-06 17:26 39.63753 14.20052 32997 ft 420 kts 282°
2026-05-06 17:26 39.65421 14.12772 32976 ft 421 kts 282°
2026-05-06 17:27 39.67091 14.05471 32966 ft 422 kts 282°
2026-05-06 17:27 39.68755 13.98202 32974 ft 423 kts 282°
2026-05-06 17:28 39.70420 13.90873 32977 ft 423 kts 282°
2026-05-06 17:28 39.72084 13.83531 32979 ft 424 kts 282°
2026-05-06 17:29 39.73749 13.76148 32970 ft 426 kts 282°
2026-05-06 17:29 39.75427 13.68734 32966 ft 428 kts 282°
2026-05-06 17:30 39.77100 13.61297 32968 ft 429 kts 282°
2026-05-06 17:30 39.78764 13.53868 32974 ft 430 kts 282°
2026-05-06 17:31 39.80430 13.46403 33003 ft 431 kts 282°
2026-05-06 17:31 39.82100 13.38916 32995 ft 431 kts 282°
2026-05-06 17:32 39.83769 13.31402 32990 ft 432 kts 282°
2026-05-06 17:32 39.85429 13.23891 32993 ft 432 kts 282°
2026-05-06 17:33 39.87085 13.16362 33001 ft 432 kts 282°
2026-05-06 17:33 39.88739 13.08840 33022 ft 432 kts 281°
2026-05-06 17:34 39.90373 13.01364 33011 ft 431 kts 281°
2026-05-06 17:34 39.92013 12.93856 33012 ft 431 kts 281°
2026-05-06 17:35 39.93654 12.86342 33013 ft 431 kts 281°
2026-05-06 17:35 39.95287 12.78830 33014 ft 431 kts 281°
2026-05-06 17:36 39.97714 12.67556 33025 ft 430 kts 281°
2026-05-06 17:36 39.99321 12.60056 33020 ft 429 kts 281°
2026-05-06 17:37 40.00928 12.52560 33015 ft 429 kts 281°
2026-05-06 17:37 40.02525 12.45056 33014 ft 429 kts 281°
2026-05-06 17:38 40.04104 12.37610 33026 ft 429 kts 280°
2026-05-06 17:38 40.05697 12.30087 33008 ft 429 kts 280°
2026-05-06 17:39 40.07289 12.22565 33003 ft 430 kts 280°
2026-05-06 17:39 40.08875 12.15037 32998 ft 430 kts 280°
2026-05-06 17:40 40.10445 12.07553 32996 ft 430 kts 280°
2026-05-06 17:40 40.12021 12.00011 33015 ft 430 kts 279°
2026-05-06 17:41 40.13589 11.92450 33008 ft 431 kts 279°
2026-05-06 17:41 40.15155 11.84876 32996 ft 431 kts 279°
2026-05-06 17:42 40.16715 11.77310 32996 ft 431 kts 279°
2026-05-06 17:42 40.18272 11.69737 32993 ft 431 kts 279°
2026-05-06 17:43 40.19820 11.62206 33012 ft 431 kts 279°
2026-05-06 17:43 40.21376 11.54625 33007 ft 430 kts 279°
2026-05-06 17:44 40.22913 11.47052 33004 ft 430 kts 279°
2026-05-06 17:44 40.24436 11.39537 33000 ft 429 kts 279°
2026-05-06 17:45 40.25960 11.31982 32999 ft 429 kts 279°
2026-05-06 17:45 40.27480 11.24422 33012 ft 429 kts 278°
2026-05-06 17:46 40.28998 11.16873 33007 ft 428 kts 278°
2026-05-06 17:46 40.30518 11.09322 33005 ft 428 kts 278°
2026-05-06 17:47 40.32023 11.01765 32998 ft 428 kts 278°
2026-05-06 17:47 40.33513 10.94244 32996 ft 428 kts 278°
2026-05-06 17:48 40.35002 10.86700 32993 ft 428 kts 278°
2026-05-06 17:48 40.36495 10.79137 32989 ft 428 kts 278°
2026-05-06 17:49 40.37983 10.71566 32982 ft 428 kts 278°
2026-05-06 17:49 40.39459 10.64042 32987 ft 428 kts 278°
2026-05-06 17:50 40.40925 10.56485 33019 ft 428 kts 278°
2026-05-06 17:50 40.42397 10.48888 32983 ft 429 kts 278°
2026-05-06 17:51 40.43619 10.42575 32979 ft 430 kts 278°
2026-05-06 17:51 40.45082 10.34953 32979 ft 430 kts 278°
2026-05-06 17:52 40.46546 10.27324 32973 ft 430 kts 278°
2026-05-06 17:52 40.48009 10.19708 33003 ft 431 kts 278°
2026-05-06 17:53 40.49465 10.12071 32991 ft 430 kts 278°
2026-05-06 17:53 40.50905 10.04442 32983 ft 430 kts 278°
2026-05-06 17:54 40.52347 9.96808 32979 ft 430 kts 278°
2026-05-06 17:54 40.53778 9.89179 32980 ft 430 kts 278°
2026-05-06 17:55 40.55209 9.81554 32999 ft 430 kts 278°
2026-05-06 17:55 40.56638 9.73922 32986 ft 430 kts 278°
2026-05-06 17:56 40.58054 9.66281 32991 ft 430 kts 278°
2026-05-06 17:56 40.59456 9.58697 32981 ft 430 kts 278°
2026-05-06 17:57 40.60876 9.51027 32975 ft 430 kts 278°
2026-05-06 17:57 40.62288 9.43363 32997 ft 430 kts 279°
2026-05-06 17:58 40.63685 9.35725 32990 ft 429 kts 279°
2026-05-06 17:58 40.65079 9.28077 32988 ft 428 kts 279°
2026-05-06 17:59 40.66465 9.20450 32984 ft 428 kts 278°
2026-05-06 17:59 40.67844 9.12829 32983 ft 428 kts 278°
2026-05-06 18:00 40.69217 9.05203 33003 ft 427 kts 278°
2026-05-06 18:00 40.70565 8.97646 32996 ft 426 kts 278°
2026-05-06 18:01 40.71922 8.90048 32991 ft 425 kts 278°
2026-05-06 18:01 40.73276 8.82460 32987 ft 425 kts 278°
2026-05-06 18:02 40.74626 8.74862 32981 ft 425 kts 278°
2026-05-06 18:02 40.75967 8.67269 32992 ft 425 kts 278°
2026-05-06 18:03 40.77301 8.59675 32989 ft 425 kts 278°
2026-05-06 18:03 40.78620 8.52121 32984 ft 424 kts 278°
2026-05-06 18:04 40.79939 8.44525 32977 ft 424 kts 278°
2026-05-06 18:04 40.81255 8.36939 32973 ft 424 kts 278°
2026-05-06 18:05 40.82570 8.29342 32992 ft 424 kts 278°
2026-05-06 18:05 40.83881 8.21744 32984 ft 424 kts 278°
2026-05-06 18:06 40.85184 8.14142 32990 ft 424 kts 278°
2026-05-06 18:06 40.85937 8.06489 32983 ft 418 kts 270°
2026-05-06 18:07 40.86107 8.02699 33202 ft 418 kts 270°
2026-05-06 18:07 40.86287 7.98838 33497 ft 417 kts 270°
2026-05-06 18:07 40.86507 7.95021 33801 ft 416 kts 271°
2026-05-06 18:07 40.86772 7.91213 33946 ft 416 kts 272°
2026-05-06 18:08 40.87344 7.83661 33958 ft 414 kts 272°
2026-05-06 18:08 40.87896 7.76085 33958 ft 414 kts 271°
2026-05-06 18:09 40.88410 7.68501 33961 ft 414 kts 271°
2026-05-06 18:09 40.88907 7.60921 33965 ft 414 kts 271°
2026-05-06 18:10 40.89401 7.53343 33994 ft 414 kts 271°
2026-05-06 18:10 40.89894 7.45814 33990 ft 413 kts 271°
2026-05-06 18:11 40.90381 7.38247 33982 ft 412 kts 271°
2026-05-06 18:11 40.90865 7.30692 33981 ft 412 kts 271°
2026-05-06 18:12 40.91351 7.23142 33982 ft 412 kts 271°
2026-05-06 18:12 40.91828 7.15596 33980 ft 412 kts 271°
2026-05-06 18:13 40.92298 7.08090 33979 ft 412 kts 271°
2026-05-06 18:13 40.92765 7.00499 33979 ft 412 kts 271°
2026-05-06 18:14 40.93223 6.92956 33982 ft 411 kts 271°
2026-05-06 18:14 40.93677 6.85402 33981 ft 411 kts 271°
2026-05-06 18:15 40.94124 6.77908 33999 ft 410 kts 270°
2026-05-06 18:15 40.94570 6.70385 33993 ft 409 kts 270°
2026-05-06 18:16 40.95012 6.62868 33992 ft 409 kts 270°
2026-05-06 18:16 40.95444 6.55376 33987 ft 408 kts 270°
2026-05-06 18:17 40.95869 6.47938 33986 ft 408 kts 270°
2026-05-06 18:17 40.96290 6.40457 34001 ft 407 kts 270°
2026-05-06 18:18 40.96500 6.36734 34113 ft 405 kts 270°
2026-05-06 18:18 40.96710 6.33026 34395 ft 403 kts 270°
2026-05-06 18:18 40.96916 6.29321 34619 ft 403 kts 270°
2026-05-06 18:18 40.97118 6.25624 34817 ft 402 kts 270°
2026-05-06 18:19 40.97314 6.21931 34945 ft 403 kts 270°
2026-05-06 18:19 40.97510 6.18228 34969 ft 403 kts 270°
2026-05-06 18:19 40.97907 6.10817 34973 ft 403 kts 270°
2026-05-06 18:20 40.98299 6.03440 34965 ft 401 kts 270°
2026-05-06 18:20 40.98689 5.96088 34967 ft 400 kts 270°
2026-05-06 18:21 40.99069 5.88784 34971 ft 400 kts 270°
2026-05-06 18:21 40.99446 5.81427 34972 ft 400 kts 270°
2026-05-06 18:22 40.99815 5.74075 34974 ft 401 kts 270°
2026-05-06 18:22 41.00174 5.66709 34995 ft 400 kts 270°
2026-05-06 18:23 41.00541 5.59357 34994 ft 400 kts 270°
2026-05-06 18:23 41.00905 5.52020 34992 ft 399 kts 270°
2026-05-06 18:24 41.01259 5.44673 34987 ft 399 kts 269°
2026-05-06 18:24 41.01605 5.37335 34985 ft 399 kts 270°
2026-05-06 18:25 41.01981 5.30007 35003 ft 399 kts 270°
2026-05-06 18:25 41.02369 5.22729 34997 ft 398 kts 270°
2026-05-06 18:26 41.02752 5.15419 34992 ft 397 kts 270°
2026-05-06 18:26 41.03126 5.08118 34989 ft 397 kts 270°
2026-05-06 18:27 41.03492 5.00814 34988 ft 397 kts 270°
2026-05-06 18:27 41.03849 4.93532 35006 ft 397 kts 269°
2026-05-06 18:28 41.04200 4.86231 34995 ft 396 kts 269°
2026-05-06 18:28 41.04539 4.78961 34990 ft 396 kts 269°
2026-05-06 18:29 41.05078 4.71730 34983 ft 398 kts 273°
2026-05-06 18:29 41.05899 4.64466 34981 ft 399 kts 274°
2026-05-06 18:30 41.06763 4.57213 35003 ft 398 kts 274°
2026-05-06 18:30 41.07577 4.49950 35080 ft 398 kts 274°
2026-05-06 18:31 41.07966 4.46322 35283 ft 397 kts 274°
2026-05-06 18:31 41.08348 4.42690 35462 ft 398 kts 274°
2026-05-06 18:31 41.08728 4.39061 35622 ft 398 kts 274°
2026-05-06 18:31 41.09111 4.35422 35783 ft 399 kts 274°
2026-05-06 18:32 41.09498 4.31770 35933 ft 399 kts 274°
2026-05-06 18:32 41.09886 4.28119 35964 ft 400 kts 274°
2026-05-06 18:32 41.10652 4.20888 35963 ft 400 kts 274°
2026-05-06 18:33 41.11419 4.13554 35965 ft 400 kts 274°
2026-05-06 18:33 41.12178 4.06246 35964 ft 400 kts 274°
2026-05-06 18:34 41.12803 4.00161 35966 ft 400 kts 274°
2026-05-06 18:34 41.13555 3.92834 35966 ft 400 kts 274°
2026-05-06 18:35 41.14308 3.85512 35968 ft 401 kts 274°
2026-05-06 18:35 41.15047 3.78178 35990 ft 401 kts 274°
2026-05-06 18:36 41.15772 3.70892 35989 ft 400 kts 274°
2026-05-06 18:36 41.16163 3.67006 35987 ft 400 kts 274°
2026-05-06 18:37 41.16344 3.65207 35985 ft 400 kts 274°
2026-05-06 18:38 41.17079 3.57916 35983 ft 400 kts 274°
2026-05-06 18:38 41.17809 3.50600 35979 ft 400 kts 274°
2026-05-06 18:39 41.18534 3.43271 35978 ft 400 kts 274°
2026-05-06 18:40 41.19600 3.32303 35974 ft 400 kts 274°
2026-05-06 18:40 41.20302 3.24973 35972 ft 400 kts 273°
2026-05-06 18:41 41.21002 3.17654 35972 ft 400 kts 273°
2026-05-06 18:41 41.21699 3.10331 35971 ft 400 kts 273°
2026-05-06 18:42 41.22386 3.03050 35974 ft 399 kts 274°
2026-05-06 18:42 41.23072 2.95728 35971 ft 399 kts 273°
2026-05-06 18:43 41.23758 2.88405 35967 ft 399 kts 273°
2026-05-06 18:43 41.24437 2.81084 35969 ft 399 kts 273°
2026-05-06 18:44 41.25114 2.73762 35971 ft 399 kts 273°
2026-05-06 18:44 41.25782 2.66478 35984 ft 399 kts 273°
2026-05-06 18:45 41.26444 2.59155 35977 ft 399 kts 273°
2026-05-06 18:45 41.27104 2.51828 35971 ft 399 kts 273°
2026-05-06 18:46 41.27765 2.44497 35967 ft 399 kts 273°
2026-05-06 18:46 41.28415 2.37164 35966 ft 399 kts 273°
2026-05-06 18:47 41.29056 2.29853 35962 ft 399 kts 273°
2026-05-06 18:47 41.29702 2.22476 35960 ft 400 kts 273°
2026-05-06 18:48 41.30336 2.15157 35956 ft 400 kts 273°
2026-05-06 18:48 41.30392 2.07818 35956 ft 395 kts 259°
2026-05-06 18:49 41.29548 2.00585 35954 ft 396 kts 259°
2026-05-06 18:49 41.28707 1.93338 35949 ft 396 kts 259°
2026-05-06 18:50 41.27867 1.86095 35966 ft 397 kts 259°
2026-05-06 18:50 41.27026 1.78878 35962 ft 397 kts 259°
2026-05-06 18:51 41.26179 1.71608 35960 ft 398 kts 259°
2026-05-06 18:51 41.25329 1.64353 35952 ft 397 kts 259°
2026-05-06 18:52 41.24467 1.57081 35948 ft 397 kts 259°
2026-05-06 18:52 41.23605 1.49866 35955 ft 398 kts 259°
2026-05-06 18:53 41.22741 1.42582 35946 ft 399 kts 259°
2026-05-06 18:53 41.21871 1.35299 35941 ft 400 kts 259°
2026-05-06 18:54 41.20996 1.28010 35945 ft 400 kts 259°
2026-05-06 18:54 41.20110 1.20704 35950 ft 400 kts 259°
2026-05-06 18:55 41.19216 1.13408 35966 ft 400 kts 259°
2026-05-06 18:55 41.18317 1.06111 35957 ft 401 kts 259°
2026-05-06 18:56 41.17412 0.98789 35952 ft 402 kts 259°
2026-05-06 18:56 41.16509 0.91496 35941 ft 403 kts 259°
2026-05-06 18:57 41.15593 0.84158 35942 ft 403 kts 259°
2026-05-06 18:57 41.14670 0.76821 35947 ft 403 kts 259°
2026-05-06 18:58 41.13737 0.69486 35954 ft 403 kts 259°
2026-05-06 18:58 41.12811 0.62144 35926 ft 404 kts 259°
2026-05-06 18:59 41.11888 0.54803 35932 ft 403 kts 259°
2026-05-06 18:59 41.10959 0.47472 35941 ft 403 kts 259°
2026-05-06 19:00 41.10024 0.40186 35945 ft 403 kts 259°
2026-05-06 19:00 41.09067 0.32819 35948 ft 403 kts 259°
2026-05-06 19:01 41.08116 0.25539 35950 ft 403 kts 259°
2026-05-06 19:01 41.07158 0.18202 35950 ft 403 kts 259°
2026-05-06 19:02 41.06191 0.10870 35954 ft 404 kts 259°
2026-05-06 19:02 41.05213 0.03537 35957 ft 404 kts 259°
2026-05-06 19:03 41.04234 -0.03806 35959 ft 404 kts 259°
2026-05-06 19:03 41.03249 -0.11156 35950 ft 405 kts 258°
2026-05-06 19:04 41.02271 -0.18470 35945 ft 405 kts 258°
2026-05-06 19:04 41.01276 -0.25820 35945 ft 406 kts 259°
2026-05-06 19:05 40.99720 -0.32968 35958 ft 405 kts 250°
2026-05-06 19:05 40.97817 -0.39996 35955 ft 405 kts 250°
2026-05-06 19:06 40.95913 -0.47028 35962 ft 406 kts 250°
2026-05-06 19:06 40.94002 -0.54059 35966 ft 406 kts 250°
2026-05-06 19:07 40.92085 -0.61085 35969 ft 406 kts 250°
2026-05-06 19:07 40.90169 -0.68102 35960 ft 405 kts 250°
2026-05-06 19:08 40.88253 -0.75105 35976 ft 404 kts 250°
2026-05-06 19:08 40.86341 -0.82077 35974 ft 404 kts 250°
2026-05-06 19:09 40.84417 -0.89058 35967 ft 404 kts 249°
2026-05-06 19:09 40.82480 -0.96030 35964 ft 405 kts 249°
2026-05-06 19:10 40.80538 -1.03014 35967 ft 406 kts 249°
2026-05-06 19:10 40.78603 -1.09966 35968 ft 406 kts 249°
2026-05-06 19:11 40.76655 -1.16952 35961 ft 406 kts 249°
2026-05-06 19:11 40.74694 -1.23950 35959 ft 408 kts 249°
2026-05-06 19:12 40.72718 -1.30977 35951 ft 409 kts 249°
2026-05-06 19:12 40.70742 -1.38010 35958 ft 409 kts 249°
2026-05-06 19:13 40.68757 -1.45063 35961 ft 410 kts 249°
2026-05-06 19:13 40.66766 -1.52095 35960 ft 410 kts 249°
2026-05-06 19:14 40.64771 -1.59146 35963 ft 411 kts 249°
2026-05-06 19:14 40.62765 -1.66210 35955 ft 412 kts 249°
2026-05-06 19:15 40.60750 -1.73281 35954 ft 412 kts 249°
2026-05-06 19:15 40.58730 -1.80347 35952 ft 412 kts 249°
2026-05-06 19:16 40.56703 -1.87410 35952 ft 413 kts 249°
2026-05-06 19:16 40.54690 -1.94435 35954 ft 413 kts 249°
2026-05-06 19:17 40.52986 -2.00361 35945 ft 414 kts 249°
2026-05-06 19:17 40.50931 -2.07440 35948 ft 415 kts 249°
2026-05-06 19:18 40.48875 -2.14528 35942 ft 415 kts 249°
2026-05-06 19:18 40.46813 -2.21633 35940 ft 416 kts 249°
2026-05-06 19:19 40.44747 -2.28721 35930 ft 415 kts 249°
2026-05-06 19:19 40.42686 -2.35758 35942 ft 416 kts 249°
2026-05-06 19:20 40.40609 -2.42838 35942 ft 416 kts 249°
2026-05-06 19:20 40.38517 -2.49963 35933 ft 416 kts 249°
2026-05-06 19:21 40.36620 -2.57084 35933 ft 416 kts 253°
2026-05-06 19:21 40.35047 -2.64378 35928 ft 416 kts 253°
2026-05-06 19:22 40.33467 -2.71684 35930 ft 417 kts 253°
2026-05-06 19:22 40.31877 -2.79001 35928 ft 417 kts 253°
2026-05-06 19:23 40.30282 -2.86319 35928 ft 418 kts 253°
2026-05-06 19:23 40.28679 -2.93639 35931 ft 418 kts 253°
2026-05-06 19:24 40.27075 -3.00966 35930 ft 419 kts 253°
2026-05-06 19:24 40.25461 -3.08297 35938 ft 419 kts 253°
2026-05-06 19:25 40.23833 -3.15632 35943 ft 419 kts 253°
2026-05-06 19:25 40.22197 -3.22963 35931 ft 419 kts 253°
2026-05-06 19:26 40.20572 -3.30245 35921 ft 419 kts 253°
2026-05-06 19:26 40.18936 -3.37577 35919 ft 419 kts 253°
2026-05-06 19:27 40.17298 -3.44903 35924 ft 420 kts 253°
2026-05-06 19:27 40.15651 -3.52218 35920 ft 420 kts 253°
2026-05-06 19:28 40.13999 -3.59556 35919 ft 420 kts 253°
2026-05-06 19:28 40.12367 -3.66772 35914 ft 420 kts 253°
2026-05-06 19:29 40.10705 -3.74106 35915 ft 421 kts 253°
2026-05-06 19:29 40.09036 -3.81433 35916 ft 421 kts 253°
2026-05-06 19:30 40.07366 -3.88715 35914 ft 421 kts 253°
2026-05-06 19:30 40.05680 -3.96036 35908 ft 421 kts 253°
2026-05-06 19:31 40.03994 -4.03356 35904 ft 421 kts 253°
2026-05-06 19:31 40.01461 -4.14334 35898 ft 421 kts 253°
2026-05-06 19:32 39.99759 -4.21655 35896 ft 421 kts 253°
2026-05-06 19:32 39.98056 -4.28968 35899 ft 422 kts 253°
2026-05-06 19:33 39.96360 -4.36297 35895 ft 422 kts 254°
2026-05-06 19:33 39.94848 -4.43683 35900 ft 422 kts 256°
2026-05-06 19:34 39.93406 -4.51057 35892 ft 422 kts 256°
2026-05-06 19:34 39.91926 -4.58460 35898 ft 422 kts 255°
2026-05-06 19:35 39.90418 -4.65867 35904 ft 423 kts 255°
2026-05-06 19:35 39.88889 -4.73262 35902 ft 423 kts 255°
2026-05-06 19:36 39.87358 -4.80669 35904 ft 423 kts 255°
2026-05-06 19:36 39.85826 -4.88060 35903 ft 423 kts 255°
2026-05-06 19:37 39.84299 -4.95443 35909 ft 422 kts 255°
2026-05-06 19:37 39.83026 -5.01576 35903 ft 422 kts 255°
2026-05-06 19:38 39.81230 -5.10195 35895 ft 422 kts 255°
2026-05-06 19:38 39.79686 -5.17533 35894 ft 422 kts 255°
2026-05-06 19:39 39.78131 -5.24889 35895 ft 422 kts 255°
2026-05-06 19:39 39.76578 -5.32266 35897 ft 423 kts 255°
2026-05-06 19:40 39.75021 -5.39630 35896 ft 422 kts 255°
2026-05-06 19:40 39.73455 -5.46998 35895 ft 422 kts 255°
2026-05-06 19:41 39.71883 -5.54348 35889 ft 422 kts 254°
2026-05-06 19:41 39.70309 -5.61694 35886 ft 421 kts 254°
2026-05-06 19:42 39.68742 -5.68983 35886 ft 422 kts 254°
2026-05-06 19:42 39.67163 -5.76328 35892 ft 422 kts 254°
2026-05-06 19:43 39.65580 -5.83656 35870 ft 422 kts 254°
2026-05-06 19:43 39.63991 -5.90978 35873 ft 421 kts 254°
2026-05-06 19:44 39.62402 -5.98287 35871 ft 421 kts 254°
2026-05-06 19:45 39.59325 -6.12342 35876 ft 420 kts 253°
2026-05-06 19:46 39.56160 -6.26738 35876 ft 420 kts 253°
2026-05-06 19:46 39.54548 -6.34007 35874 ft 420 kts 253°
2026-05-06 19:47 39.52935 -6.41271 35869 ft 419 kts 253°
2026-05-06 19:47 39.50669 -6.48157 35877 ft 419 kts 244°
2026-05-06 19:48 39.48076 -6.54907 35873 ft 419 kts 244°
2026-05-06 19:48 39.45480 -6.61674 35867 ft 420 kts 243°
2026-05-06 19:49 39.42883 -6.68429 35868 ft 420 kts 243°
2026-05-06 19:49 39.40276 -6.75188 35867 ft 420 kts 243°
2026-05-06 19:50 39.37660 -6.81938 35853 ft 420 kts 243°
2026-05-06 19:50 39.35064 -6.88637 35867 ft 420 kts 243°
2026-05-06 19:51 39.32422 -6.95354 35865 ft 419 kts 243°
2026-05-06 19:51 39.29757 -7.02042 35872 ft 419 kts 243°
2026-05-06 19:52 39.27086 -7.08736 35542 ft 419 kts 243°
2026-05-06 19:52 39.25752 -7.12083 35216 ft 418 kts 243°
2026-05-06 19:52 39.24423 -7.15421 34553 ft 419 kts 242°
2026-05-06 19:53 39.23101 -7.18734 33784 ft 422 kts 242°
2026-05-06 19:53 39.21754 -7.22103 32916 ft 424 kts 242°
2026-05-06 19:53 39.20397 -7.25483 32075 ft 426 kts 242°
2026-05-06 19:53 39.19028 -7.28880 31263 ft 427 kts 242°
2026-05-06 19:54 39.17656 -7.32291 30443 ft 429 kts 242°
2026-05-06 19:54 39.16278 -7.35720 29415 ft 434 kts 241°
2026-05-06 19:54 39.14885 -7.39182 28445 ft 435 kts 242°
2026-05-06 19:54 39.13492 -7.42641 27538 ft 436 kts 242°
2026-05-06 19:55 39.12087 -7.46129 26443 ft 441 kts 242°
2026-05-06 19:55 39.10688 -7.49602 25488 ft 444 kts 242°
2026-05-06 19:55 39.09280 -7.53090 25102 ft 431 kts 242°
2026-05-06 19:55 39.07950 -7.56376 24911 ft 397 kts 241°
2026-05-06 19:56 39.06707 -7.59440 24889 ft 381 kts 241°
2026-05-06 19:56 39.05483 -7.62450 24795 ft 379 kts 241°
2026-05-06 19:56 39.04240 -7.65441 24550 ft 380 kts 240°
2026-05-06 19:56 39.02918 -7.68398 24318 ft 382 kts 238°
2026-05-06 19:57 39.01544 -7.71333 24079 ft 384 kts 238°
2026-05-06 19:57 39.00142 -7.74264 23875 ft 385 kts 237°
2026-05-06 19:57 38.98739 -7.77188 23373 ft 377 kts 238°
2026-05-06 19:57 38.97423 -7.79949 22788 ft 358 kts 238°
2026-05-06 19:58 38.96163 -7.82615 22226 ft 341 kts 238°
2026-05-06 19:58 38.94961 -7.85172 21662 ft 329 kts 238°
2026-05-06 19:58 38.93791 -7.87671 21121 ft 324 kts 238°
2026-05-06 19:58 38.92637 -7.90138 20583 ft 321 kts 238°
2026-05-06 19:59 38.91489 -7.92583 20059 ft 319 kts 238°
2026-05-06 19:59 38.90347 -7.95014 19533 ft 316 kts 238°
2026-05-06 19:59 38.89217 -7.97421 19027 ft 313 kts 238°
2026-05-06 19:59 38.88095 -7.99813 18517 ft 312 kts 238°
2026-05-06 20:00 38.86980 -8.02188 18002 ft 310 kts 238°
2026-05-06 20:00 38.85877 -8.04532 17451 ft 304 kts 238°
2026-05-06 20:00 38.84778 -8.06859 16902 ft 306 kts 237°
2026-05-06 20:00 38.83684 -8.09176 16352 ft 309 kts 238°
2026-05-06 20:01 38.82566 -8.11542 15815 ft 312 kts 238°
2026-05-06 20:01 38.81447 -8.13910 15273 ft 306 kts 238°
2026-05-06 20:01 38.80365 -8.16200 14829 ft 293 kts 238°
2026-05-06 20:01 38.79340 -8.18366 14599 ft 279 kts 238°
2026-05-06 20:02 38.78339 -8.20477 14359 ft 274 kts 237°
2026-05-06 20:02 38.77355 -8.22547 14115 ft 270 kts 238°
2026-05-06 20:02 38.76379 -8.24601 13876 ft 270 kts 238°
2026-05-06 20:02 38.75411 -8.26642 13618 ft 266 kts 238°
2026-05-06 20:03 38.74451 -8.28670 13361 ft 264 kts 238°
2026-05-06 20:03 38.73686 -8.30789 13092 ft 263 kts 252°
2026-05-06 20:03 38.73171 -8.33049 12827 ft 264 kts 252°
2026-05-06 20:03 38.72671 -8.35267 12505 ft 263 kts 253°
2026-05-06 20:04 38.72161 -8.37531 12117 ft 266 kts 253°
2026-05-06 20:04 38.71651 -8.39807 11736 ft 266 kts 253°
2026-05-06 20:04 38.71141 -8.42087 11353 ft 266 kts 253°
2026-05-06 20:04 38.70631 -8.44366 10979 ft 266 kts 253°
2026-05-06 20:05 38.70120 -8.46636 10609 ft 266 kts 253°
2026-05-06 20:05 38.69606 -8.48908 10242 ft 266 kts 253°
2026-05-06 20:05 38.69093 -8.51179 9890 ft 265 kts 253°
2026-05-06 20:05 38.68579 -8.53443 9505 ft 265 kts 253°
2026-05-06 20:06 38.68064 -8.55711 9098 ft 265 kts 253°
2026-05-06 20:06 38.67553 -8.57968 8707 ft 264 kts 253°
2026-05-06 20:06 38.67043 -8.60223 8317 ft 264 kts 253°
2026-05-06 20:06 38.66535 -8.62475 7935 ft 263 kts 253°
2026-05-06 20:07 38.66039 -8.64671 7552 ft 257 kts 253°
2026-05-06 20:07 38.65548 -8.66840 7183 ft 251 kts 253°
2026-05-06 20:07 38.65070 -8.68953 6951 ft 244 kts 253°
2026-05-06 20:07 38.64596 -8.71045 6947 ft 246 kts 253°
2026-05-06 20:08 38.64121 -8.73142 6946 ft 244 kts 253°
2026-05-06 20:08 38.63648 -8.75219 6948 ft 243 kts 253°
2026-05-06 20:08 38.63171 -8.77295 6946 ft 243 kts 253°
2026-05-06 20:08 38.62704 -8.79329 6951 ft 232 kts 253°
2026-05-06 20:09 38.62262 -8.81254 6952 ft 223 kts 253°
2026-05-06 20:09 38.61828 -8.83147 6959 ft 222 kts 253°
2026-05-06 20:09 38.61420 -8.85018 6936 ft 222 kts 260°
2026-05-06 20:09 38.61268 -8.86974 6754 ft 220 kts 265°
2026-05-06 20:10 38.61163 -8.88917 6667 ft 219 kts 266°
2026-05-06 20:10 38.61065 -8.90810 6620 ft 219 kts 266°
2026-05-06 20:10 38.60962 -8.92781 6574 ft 219 kts 266°
2026-05-06 20:10 38.60861 -8.94691 6525 ft 210 kts 265°
2026-05-06 20:11 38.60762 -8.96532 6518 ft 204 kts 265°
2026-05-06 20:11 38.60665 -8.98324 6332 ft 200 kts 265°
2026-05-06 20:11 38.60569 -9.00078 6152 ft 196 kts 266°
2026-05-06 20:11 38.60473 -9.01813 5941 ft 195 kts 266°
2026-05-06 20:12 38.60376 -9.03540 5734 ft 194 kts 266°
2026-05-06 20:12 38.60278 -9.05255 5533 ft 193 kts 266°
2026-05-06 20:12 38.60184 -9.06931 5328 ft 191 kts 266°
2026-05-06 20:12 38.60090 -9.08621 5120 ft 190 kts 268°
2026-05-06 20:13 38.59997 -9.10295 4933 ft 189 kts 268°
2026-05-06 20:13 38.59902 -9.11970 4730 ft 189 kts 268°
2026-05-06 20:13 38.59805 -9.13644 4526 ft 188 kts 269°
2026-05-06 20:13 38.59710 -9.15299 4318 ft 186 kts 268°
2026-05-06 20:14 38.59616 -9.16948 4127 ft 186 kts 270°
2026-05-06 20:14 38.59520 -9.18585 4039 ft 185 kts 271°
2026-05-06 20:14 38.59518 -9.20172 3958 ft 175 kts 287°
2026-05-06 20:14 38.60068 -9.21485 3690 ft 164 kts 318°
2026-05-06 20:15 38.61013 -9.22164 3564 ft 153 kts 346°
2026-05-06 20:15 38.62064 -9.22146 3421 ft 154 kts 13°
2026-05-06 20:15 38.63063 -9.21636 3262 ft 153 kts 19°
2026-05-06 20:15 38.64047 -9.21111 3066 ft 153 kts 18°
2026-05-06 20:16 38.65033 -9.20585 2848 ft 152 kts 18°
2026-05-06 20:16 38.66007 -9.20066 2632 ft 152 kts 19°
2026-05-06 20:16 38.66976 -9.19549 2439 ft 150 kts 18°
2026-05-06 20:16 38.67939 -9.19036 2216 ft 151 kts 18°
2026-05-06 20:17 38.68894 -9.18527 2006 ft 149 kts 18°
2026-05-06 20:17 38.69837 -9.18024 1805 ft 148 kts 18°
2026-05-06 20:17 38.70793 -9.17514 1613 ft 147 kts 18°
2026-05-06 20:17 38.71701 -9.17029 1416 ft 140 kts 18°
2026-05-06 20:18 38.72590 -9.16555 1221 ft 139 kts 21°
2026-05-06 20:18 38.73463 -9.16089 1045 ft 138 kts 16°
2026-05-06 20:18 38.74353 -9.15614 847 ft 140 kts 19°
2026-05-06 20:18 38.75258 -9.15130 677 ft 141 kts 17°
2026-05-06 20:19 38.76158 -9.14650 488 ft 138 kts 19°
2026-05-06 20:19 38.77040 -9.14177 357 ft 131 kts 14°
2026-05-06 20:19 38.77637 -9.13841 364 ft 56 kts 34°
2026-05-06 20:19 38.77914 -9.13723 366 ft 52 kts 13°
2026-05-06 20:20 38.78156 -9.13574 367 ft 39 kts 27°
2026-05-06 20:20 38.78335 -9.13404 364 ft 19 kts 46°
2026-05-06 20:20 38.78346 -9.13275 362 ft 15 kts 155°
2026-05-06 20:20 38.78298 -9.13277 363 ft 0 kts 196°
2026-05-06 20:21 38.78293 -9.13279 361 ft 2 kts 196°
2026-05-06 20:21 38.78275 -9.13286 360 ft 4 kts 196°
2026-05-06 20:22 38.78237 -9.13304 362 ft 10 kts 200°
2026-05-06 20:22 38.78148 -9.13352 358 ft 15 kts 205°
2026-05-06 20:22 38.78043 -9.13406 358 ft 17 kts 193°
2026-05-06 20:22 38.77908 -9.13385 350 ft 22 kts 167°
2026-05-06 20:23 38.77741 -9.13340 343 ft 27 kts 168°
2026-05-06 20:23 38.77559 -9.13301 335 ft 25 kts 157°
2026-05-06 20:23 38.77401 -9.13270 336 ft 21 kts 173°
2026-05-06 20:23 38.77272 -9.13244 337 ft 15 kts 169°
2026-05-06 20:24 38.77248 -9.13230 334 ft 2 kts 131°
2026-05-06 20:24 38.77246 -9.13222 334 ft 1 kts 109°
2026-05-06 20:24 38.77247 -9.13199 337 ft 4 kts 84°
2026-05-06 20:24 38.77249 -9.13184 333 ft 2 kts 79°
2026-05-06 20:25 38.77252 -9.13166 335 ft 1 kts 78°
2026-05-06 20:25 38.77253 -9.13159 336 ft 1 kts 78°
2026-05-06 20:25 38.77254 -9.13155 335 ft 1 kts 78°
2026-05-06 20:25 38.77254 -9.13154 335 ft 0 kts 77°